Location: ????????
(38.4362°N, 22.8767°E)
Time: 14:35:13
(UTC+00:00)

ACS3 Solar Sail - Pass Details

Date: 25 June 2024
Orbit: 993 x 1023 km, 97.4° (Epoch: 18 July)

Event Time Altitude Azimuth Distance (km) Brightness Sun altitude
Exits shadow 19:29:20 21° 140° (SE) 2,063 5.9 -14.9°
Maximum altitude 19:33:22 53° 73° (ENE) 1,214 5.1 -15.5°
Drops below altitude 10° 19:39:22 10° 358° (N) 2,765 7.9 -16.2°
Sets 19:41:54 0° 354° (N) 3,717 8.8 -16.6°
